Wetbulb
53.13 53.85 53.20 53.23 53.51 52.84 46.96 42.30 36.32 43.56 43.88 35.23 31.10 29.21 32.13 38.73 35.67 36.89 36.10 34.27 32.96 30.53 30.24 29.66 30.00 29.01 31.25 35.86 35.28 31.04 30.77 29.65 26.10 30.45 36.04 37.46 34.03 29.83 31.20 26.40 21.85 21.52 20.65 20.98
53.36 53.87 53.38 53.13 53.28 52.65 41.84 40.31 38.67 43.53 41.70 30.97 29.10 30.65 34.60 35.97 34.60 35.04 34.33 33.53 34.85 32.66 30.20 28.19 31.17 32.26 35.75 36.51 33.60 31.06 31.23 26.17 22.57 26.30 30.75 32.00 30.19 33.70 29.99 27.80 25.73 20.96 20.47 22.15
53.09 53.79 53.77 53.58 53.32 52.64 41.84 37.48 35.33 37.92 37.65 33.92 29.70 29.65 31.99 31.96 35.84 34.81 35.27 33.90 32.85 30.72 28.52 30.39 29.69 31.14 35.52 35.16 34.34 41.39 35.83 26.81 26.16 23.76 26.71 28.70 26.56 27.69 28.67 27.17 20.97 21.92 21.54 22.07
52.91 53.80 53.81 53.69 53.59 52.78 42.59 36.79 36.17 37.47 32.47 32.71 30.42 31.64 31.13 29.53 30.46 34.27 33.64 31.53 31.81 29.30 26.50 27.31 27.65 29.48 31.38 34.23 36.39 33.28 31.35 25.26 24.05 25.94 27.40 28.50 28.81 28.52 28.20 26.46 25.75 22.65 23.41 24.14
53.01 53.70 53.78 53.72 53.07 52.45 41.36 37.11 35.35 34.81 32.74 32.50 30.90 32.11 30.55 31.55 31.41 32.01 30.52 30.94 31.64 30.74 27.68 29.21 26.21 28.59 27.23 27.04 31.20 28.39 29.65 25.51 25.39 24.09 26.89 26.38 26.82 27.12 28.11 27.91 24.65 25.01 25.54 25.48
53.03 53.62 53.72 53.66 52.27 49.32 40.12 38.38 38.64 38.02 35.43 31.10 30.80 30.70 31.75 32.92 33.77 34.20 34.16 33.05 31.44 30.36 31.76 33.16 31.76 32.32 32.25 30.03 27.67 28.46 27.24 25.63 23.91 21.65 25.13 25.79 23.33 24.94 26.84 26.81 26.99 27.08 25.64 28.62
53.21 53.77 53.98 53.65 52.01 50.99 41.21 39.02 39.51 37.22 33.69 32.86 32.27 33.65 33.69 33.62 33.21 31.31 33.94 33.44 31.07 33.24 34.79 33.67 32.34 30.37 31.66 30.79 29.69 30.06 26.17 25.65 24.44 20.85 24.35 18.20 26.20 26.92 28.45 27.67 28.41 27.76 27.43 28.39
53.50 53.96 54.21 53.67 51.88 52.09 41.85 41.00 40.04 37.47 33.37 34.41 33.28 34.00 33.82 32.53 32.28 32.10 33.83 34.72 34.52 34.40 32.23 28.76 27.56 26.63 26.77 28.16 29.88 27.90 28.37 26.05 22.57 21.10 20.19 24.03 25.52 26.31 27.77 26.26 26.59 29.62 29.70 30.57
53.40 53.95 54.29 53.50 51.78 51.68 42.90 41.26 41.71 38.92 35.01 34.36 36.32 34.93 34.14 31.82 29.56 30.78 33.54 35.22 35.37 33.58 30.23 28.02 23.48 22.65 23.41 24.10 24.95 28.67 29.49 27.47 25.25 21.62 19.72 18.95 26.04 29.10 29.72 30.64 25.69 31.28 31.86 31.09
53.64 54.05 54.11 52.89 51.48 51.10 44.34 41.45 41.97 40.14 34.14 36.41 36.37 35.43 34.82 35.12 32.09 31.01 30.49 31.51 31.46 32.58 27.81 26.42 24.32 24.50 25.40 22.85 22.35 23.79 24.93 24.27 22.47 23.33 20.90 24.90 28.89 30.24 31.58 23.48 27.95 31.63 32.32 31.87
53.86 54.20 54.04 52.53 51.27 50.69 46.28 42.19 42.41 40.38 35.73 36.67 38.11 37.78 36.13 35.41 34.53 32.12 33.02 32.04 31.42 29.61 27.11 26.30 26.31 25.10 25.20 22.50 24.00 23.49 25.21 22.75 22.01 23.01 20.59 20.57 31.33 30.16 27.55 31.66 30.74 31.66 31.25 32.10
53.68 53.82 53.86 52.39 51.29 50.72 47.78 41.96 42.97 42.12 37.80 36.87 38.44 37.28 37.09 37.03 37.17 36.64 34.39 32.75 32.79 32.96 29.19 27.39 26.94 26.90 23.79 23.61 23.52 25.26 25.56 28.04 26.02 26.89 27.30 31.43 31.76 30.88 32.43 32.75 32.95 31.74 31.80 32.58
53.65 54.01 54.04 52.55 51.62 50.72 47.63 42.52 41.92 40.90 37.94 36.97 37.35 35.65 36.81 38.68 37.50 38.12 35.53 35.06 35.73 34.41 34.39 31.07 29.35 27.69 27.94 24.90 24.57 23.21 26.31 28.69 28.04 28.55 29.16 30.74 32.53 32.78 31.75 33.17 33.20 33.53 33.47 34.08
53.22 54.21 53.95 52.47 51.59 50.83 47.71 42.95 42.36 40.76 37.92 34.29 34.35 37.90 34.71 37.12 37.77 37.83 38.18 37.37 36.94 36.27 34.91 32.26 31.25 28.95 31.13 27.61 27.52 27.20 29.26 29.09 28.04 27.97 30.79 30.44 32.04 32.33 33.93 33.33 34.06 33.54 33.68 34.73
52.57 53.10 53.39 52.05 51.26 50.38 47.82 45.89 43.44 42.77 39.83 35.01 34.43 35.44 34.56 36.03 36.32 36.24 36.42 37.06 35.53 34.06 32.54 31.14 30.81 31.73 30.69 29.68 29.78 29.26 30.26 29.82 28.70 28.39 32.31 31.93 31.96 32.58 33.08 33.23 34.23 34.76 34.40 32.83
48.97 52.17 51.93 51.30 50.66 49.73 46.96 42.55 45.75 45.70 43.00 36.63 30.65 33.50 32.23 34.95 35.52 35.65 35.28 35.68 34.88 33.95 32.76 30.97 31.96 34.20 30.95 26.36 26.40 33.86 32.80 32.03 32.89 32.06 31.24 32.16 32.89 33.88 33.87 33.90 33.94 32.89 33.78 33.42
46.04 46.53 50.30 50.85 50.29 48.33 44.07 42.05 43.52 46.12 44.55 39.43 34.40 31.28 33.86 33.29 32.78 33.54 33.51 34.11 33.29 33.29 32.03 30.90 31.12 31.89 30.78 28.11 27.07 34.10 33.44 33.68 33.98 31.95 31.59 31.16 31.93 32.75 34.12 33.13 33.32 36.20 32.98 32.59
45.24 45.17 46.68 50.74 49.67 47.98 44.60 45.20 46.76 46.64 42.98 40.38 32.82 32.24 29.44 33.63 31.11 30.83 31.37 30.90 31.26 31.32 30.13 30.27 30.33 30.57 29.30 28.16 32.00 33.21 32.86 33.58 32.92 33.62 33.68 32.74 32.56 32.99 31.63 31.74 32.03 30.93 30.68 29.95
45.44 46.81 48.16 45.67 44.10 41.77 42.04 47.45 46.94 45.93 42.69 35.39 33.17 31.63 27.58 31.92 29.84 31.29 31.37 31.06 28.78 29.98 28.67 28.89 30.82 27.90 26.60 30.12 28.82 29.01 30.30 31.17 32.22 32.30 32.19 32.97 31.71 32.12 30.69 30.89 30.69 30.32 29.78 29.26
45.50 42.41 37.89 35.66 41.34 46.65 46.49 42.62 39.87 39.42 39.69 37.29 32.70 33.43 28.51 29.07 28.93 28.72 28.24 29.33 28.25 26.35 28.18 29.77 30.12 29.55 31.28 30.02 29.10 28.63 29.45 29.72 29.80 25.31 28.42 29.27 28.91 30.91 29.55 30.67 31.48 31.62 31.43 30.04
38.97 36.25 35.12 41.47 45.59 41.28 36.99 32.06 32.12 32.16 31.16 33.72 34.47 34.49 28.96 31.04 26.51 28.28 31.62 30.39 30.08 23.00 24.86 28.90 27.80 24.14 28.13 29.38 27.86 27.75 28.39 28.13 29.38 29.60 30.39 30.34 30.93 31.45 31.66 31.28 31.14 30.83 30.49 29.46
37.75 38.22 40.91 40.26 34.14 32.10 30.02 29.22 31.22 30.86 29.81 33.09 32.01 32.98 32.59 30.86 32.92 32.24 31.47 29.97 29.39 21.21 26.44 27.42 23.41 24.80 27.96 27.77 26.93 26.68 26.92 27.17 28.90 28.82 29.26 29.42 30.64 29.74 30.23 29.54 27.02 28.08 27.82 25.79
36.39 33.47 31.69 29.82 30.27 25.98 24.45 23.76 27.55 28.78 31.18 32.38 32.38 30.90 33.27 32.78 34.19 31.71 30.92 27.67 25.72 28.40 25.44 24.25 21.96 26.05 27.90 26.80 26.10 26.41 27.02 26.83 27.47 27.10 27.89 29.74 28.49 28.29 27.44 26.26 25.32 24.84 24.32 24.51
27.78 23.46 22.64 22.82 22.28 25.30 25.46 26.12 27.47 29.82 31.42 31.82 32.30 30.58 30.59 31.76 30.83 30.80 27.31 27.23 25.57 17.61 14.73 17.58 23.95 26.18 27.37 26.64 26.71 26.68 26.23 26.13 25.75 22.46 21.09 24.47 27.31 25.83 25.98 25.63 24.67 24.27 23.78 24.38
22.97 22.30 16.43 19.01 25.59 26.99 27.40 27.32 28.67 30.82 33.48 32.16 31.22 31.11 31.48 29.86 29.74 29.90 26.15 21.03 20.04 21.46 20.21 25.35 26.66 27.67 26.42 26.10 26.23 25.61 25.71 25.08 24.49 24.26 19.74 17.50 19.54 24.02 23.67 23.93 23.84 23.82 23.83 23.66
20.17 19.98 19.21 25.17 24.21 25.53 25.98 26.04 26.65 29.96 31.44 31.79 31.38 29.79 28.12 26.71 27.39 24.54 19.93 21.08 21.59 20.51 26.77 27.03 26.57 27.22 25.50 25.12 25.94 25.88 26.57 25.32 25.08 25.50 24.45 21.10 21.56 23.77 23.21 22.63 22.94 23.00 23.28 22.87
12.75 14.88 24.25 25.14 24.87 23.96 24.91 26.55 26.60 30.05 27.74 25.05 25.71 21.70 21.65 21.63 19.19 19.65 24.28 19.81 21.80 23.80 24.75 25.53 27.79 27.09 26.76 26.82 26.93 26.92 26.87 25.93 24.48 24.34 24.25 21.64 18.21 13.20 15.80 17.92 22.23 21.62 22.73 20.91
MSLP
1019.23 1019.20 1019.29 1019.60 1019.75 1019.55 1019.31 1018.92 1019.54 1019.84 1019.70 1019.96 1020.26 1019.85 1018.30 1017.21 1016.68 1016.54 1016.51 1016.43 1016.30 1016.03 1015.63 1015.21 1014.83 1014.68 1014.49 1014.48 1014.59 1014.95 1015.21 1015.77 1016.80 1016.87 1016.44 1016.11 1015.96 1015.98 1015.90 1017.45 1016.90 1016.51 1015.79 1015.30
1018.69 1018.72 1018.75 1019.01 1019.52 1019.58 1019.66 1019.05 1019.46 1019.82 1019.88 1019.81 1019.77 1018.77 1017.85 1016.99 1016.53 1016.33 1016.34 1016.19 1015.97 1015.74 1015.62 1015.43 1014.76 1014.51 1014.24 1014.35 1014.52 1014.65 1015.09 1015.68 1016.90 1016.85 1016.28 1015.88 1015.92 1015.62 1015.68 1016.15 1016.46 1015.94 1015.27 1015.31
1018.00 1018.21 1018.24 1018.58 1018.99 1019.39 1019.94 1019.22 1019.35 1019.94 1020.06 1019.30 1018.85 1018.36 1017.43 1016.67 1016.13 1016.01 1015.97 1015.95 1015.84 1015.80 1015.50 1015.28 1015.07 1014.70 1014.43 1014.51 1014.53 1014.62 1014.97 1015.28 1015.46 1015.46 1014.89 1015.17 1015.55 1014.72 1015.23 1015.96 1016.13 1014.93 1014.67 1015.02
1017.24 1017.52 1017.60 1018.02 1018.49 1019.00 1019.92 1018.73 1018.14 1017.71 1018.87 1018.59 1018.11 1017.75 1017.13 1016.49 1016.13 1015.99 1015.82 1015.85 1015.90 1016.04 1015.91 1015.45 1015.35 1015.18 1014.99 1014.69 1014.88 1014.94 1015.13 1015.30 1015.16 1014.80 1014.45 1014.28 1014.05 1013.99 1014.40 1015.05 1014.46 1014.19 1014.32 1014.69
1016.33 1016.79 1016.87 1017.31 1017.88 1018.57 1019.34 1018.12 1017.71 1017.71 1017.59 1017.41 1017.56 1017.37 1016.76 1016.18 1015.81 1015.87 1015.75 1015.91 1015.80 1015.98 1016.02 1015.65 1015.67 1015.68 1015.60 1015.57 1015.36 1015.36 1015.38 1015.36 1015.13 1014.71 1014.26 1013.97 1013.75 1013.66 1013.79 1013.79 1013.74 1013.88 1014.00 1014.72
1015.31 1015.87 1016.04 1016.60 1017.18 1018.12 1018.02 1017.31 1016.71 1016.43 1016.86 1017.12 1017.07 1016.55 1015.96 1015.73 1015.62 1015.47 1015.44 1015.61 1015.89 1015.85 1015.58 1015.51 1015.61 1015.75 1015.78 1015.77 1015.95 1015.94 1015.90 1015.72 1015.58 1014.86 1014.11 1013.55 1013.43 1013.01 1012.96 1012.96 1013.22 1013.66 1014.04 1014.22
1014.20 1014.87 1015.10 1015.62 1016.32 1017.06 1017.19 1016.62 1016.27 1016.53 1016.34 1016.48 1015.98 1015.55 1015.63 1015.65 1015.65 1015.70 1015.63 1015.85 1016.05 1015.79 1015.58 1015.68 1015.71 1015.73 1015.67 1015.72 1015.77 1016.05 1016.04 1015.99 1015.83 1015.35 1014.14 1013.60 1012.95 1012.65 1012.55 1012.63 1012.98 1013.44 1013.87 1014.43
1013.23 1013.85 1014.04 1014.66 1015.26 1015.91 1016.70 1016.23 1016.07 1015.82 1015.67 1015.42 1015.36 1015.19 1015.31 1015.62 1015.67 1015.74 1015.74 1015.80 1016.05 1016.07 1015.96 1016.04 1015.84 1015.73 1015.62 1015.43 1015.60 1015.91 1016.13 1016.06 1016.08 1015.55 1014.75 1013.65 1012.68 1012.60 1012.58 1012.60 1013.06 1013.25 1013.98 1014.87
1011.94 1012.84 1013.05 1013.72 1014.35 1014.97 1015.79 1015.65 1015.41 1015.24 1015.28 1014.77 1014.44 1014.87 1015.06 1015.63 1015.93 1015.94 1015.76 1015.86 1016.08 1016.25 1016.50 1016.44 1016.29 1016.02 1015.72 1015.55 1015.50 1015.69 1015.92 1015.92 1016.00 1015.60 1014.68 1013.53 1012.58 1012.29 1012.32 1012.45 1013.14 1013.37 1014.03 1014.99
1010.69 1011.63 1012.21 1012.86 1013.60 1014.18 1014.86 1015.01 1015.14 1014.93 1015.03 1014.50 1014.41 1014.61 1014.78 1015.20 1015.85 1016.03 1016.09 1016.13 1016.42 1016.53 1016.93 1016.94 1016.72 1016.28 1015.90 1015.75 1015.56 1015.57 1015.87 1016.13 1016.07 1015.45 1014.44 1013.29 1012.36 1012.31 1012.46 1012.75 1013.63 1013.14 1013.94 1014.67
1009.59 1010.58 1011.35 1012.04 1012.87 1013.46 1014.03 1014.62 1014.76 1014.68 1014.79 1014.78 1014.67 1014.63 1014.90 1015.34 1015.57 1015.96 1016.26 1016.60 1016.74 1017.02 1017.16 1017.31 1017.04 1016.82 1016.35 1016.12 1015.47 1015.34 1015.61 1015.91 1015.95 1015.25 1014.25 1013.38 1012.46 1012.73 1012.77 1012.71 1012.80 1013.18 1013.91 1014.45
1008.70 1009.80 1010.49 1011.29 1012.12 1012.84 1013.29 1014.23 1014.48 1014.48 1014.82 1015.28 1015.20 1015.33 1015.30 1015.27 1015.26 1015.48 1016.15 1016.36 1016.41 1016.53 1017.06 1017.44 1017.34 1016.95 1016.83 1016.48 1016.04 1015.40 1015.48 1015.21 1015.26 1015.00 1013.88 1012.85 1012.61 1012.59 1012.51 1012.68 1012.97 1013.45 1013.92 1014.42
1008.05 1009.04 1009.86 1010.65 1011.54 1012.29 1012.80 1013.62 1014.17 1014.46 1014.95 1015.61 1015.53 1015.77 1015.74 1015.51 1015.57 1015.64 1015.86 1016.38 1016.29 1016.57 1016.63 1017.11 1017.31 1017.19 1016.70 1016.55 1016.06 1015.59 1015.01 1014.88 1014.86 1014.41 1013.57 1012.97 1012.73 1012.74 1012.87 1012.98 1013.19 1013.34 1013.73 1014.23
1007.71 1008.61 1009.41 1010.31 1011.09 1011.90 1012.45 1013.19 1013.65 1014.11 1014.64 1015.20 1015.81 1015.79 1016.00 1015.95 1015.81 1015.78 1015.80 1015.87 1016.29 1016.45 1016.77 1017.07 1017.21 1017.24 1016.70 1016.63 1016.38 1015.95 1015.04 1014.88 1014.60 1014.22 1013.22 1012.80 1012.50 1012.48 1012.58 1012.78 1013.05 1013.44 1013.87 1014.25
1007.82 1008.39 1009.06 1010.02 1010.85 1011.75 1012.40 1012.95 1013.35 1013.52 1014.22 1014.90 1015.71 1015.97 1016.33 1016.31 1016.11 1016.05 1016.13 1016.23 1016.43 1016.76 1017.20 1017.42 1017.38 1016.98 1016.97 1016.98 1016.73 1015.55 1014.55 1013.98 1014.03 1013.70 1013.01 1012.95 1012.82 1012.61 1012.62 1012.99 1013.20 1013.59 1014.15 1014.76
1007.86 1008.45 1009.14 1009.95 1010.86 1011.64 1012.36 1013.16 1013.39 1013.29 1013.53 1014.64 1015.76 1016.57 1016.67 1016.66 1016.52 1016.49 1016.59 1016.78 1016.94 1017.03 1017.12 1017.47 1017.26 1017.08 1017.05 1017.27 1016.71 1014.37 1013.90 1013.64 1013.48 1013.47 1013.30 1013.18 1012.87 1012.78 1012.88 1013.10 1013.26 1013.70 1014.29 1014.73
1008.81 1009.37 1009.53 1010.06 1010.86 1011.84 1012.29 1012.62 1012.66 1012.98 1013.40 1014.28 1015.58 1016.39 1016.84 1016.90 1017.00 1017.25 1017.27 1017.22 1017.36 1017.46 1017.51 1017.63 1017.61 1017.49 1017.32 1017.41 1016.60 1014.85 1014.40 1014.24 1013.85 1013.76 1013.72 1013.59 1013.40 1013.38 1013.33 1013.41 1013.57 1013.87 1014.37 1014.87
1009.64 1009.99 1010.06 1010.28 1011.17 1012.00 1012.48 1012.96 1012.88 1012.92 1013.66 1014.52 1015.45 1016.48 1017.35 1017.26 1017.49 1017.79 1017.90 1017.80 1017.81 1017.90 1017.81 1017.89 1017.78 1017.86 1017.78 1017.40 1016.18 1015.83 1015.59 1015.14 1014.54 1014.29 1014.19 1014.02 1013.84 1013.79 1013.76 1013.96 1014.26 1014.60 1015.02 1015.46
1010.43 1010.56 1010.52 1011.11 1011.69 1012.38 1013.04 1013.15 1013.23 1013.35 1014.06 1014.65 1015.35 1016.02 1016.98 1017.31 1017.70 1017.82 1018.09 1018.09 1018.27 1018.32 1018.00 1017.94 1017.99 1017.85 1017.45 1016.92 1016.83 1016.72 1016.48 1016.27 1015.78 1015.17 1014.73 1014.33 1014.19 1014.07 1014.11 1014.36 1014.65 1014.96 1015.38 1015.78
1011.37 1011.11 1011.07 1012.25 1012.80 1012.97 1013.14 1013.71 1013.73 1013.78 1014.09 1014.59 1015.01 1015.63 1016.85 1017.26 1017.66 1017.88 1018.26 1018.12 1017.97 1018.19 1018.04 1017.99 1017.88 1017.45 1016.95 1017.09 1017.15 1017.06 1016.88 1016.58 1016.24 1015.87 1015.33 1014.95 1014.77 1014.70 1014.64 1014.74 1014.95 1015.22 1015.55 1015.98
1012.10 1012.20 1012.46 1013.07 1013.05 1013.33 1013.70 1014.21 1014.21 1014.50 1014.71 1014.70 1014.83 1015.20 1016.29 1016.97 1017.01 1017.13 1017.38 1017.43 1017.72 1018.06 1018.09 1018.11 1017.79 1017.61 1017.36 1017.31 1017.28 1017.13 1017.10 1016.84 1016.36 1016.04 1015.76 1015.51 1015.29 1015.10 1015.02 1015.06 1015.27 1015.58 1015.90 1016.26
1012.75 1012.66 1013.07 1013.50 1014.37 1014.26 1014.26 1014.50 1014.43 1014.25 1014.14 1014.31 1014.58 1015.04 1015.50 1016.31 1016.38 1016.38 1016.91 1016.99 1017.46 1017.78 1017.94 1018.17 1017.92 1017.78 1017.61 1017.74 1017.61 1017.46 1017.37 1017.00 1016.55 1016.17 1015.96 1015.67 1015.44 1015.37 1015.33 1015.46 1015.77 1016.04 1016.30 1016.61
1013.13 1013.62 1014.18 1014.71 1014.86 1014.74 1014.70 1014.59 1014.40 1014.23 1014.14 1014.29 1014.69 1015.14 1015.38 1015.86 1015.90 1015.99 1016.33 1016.70 1017.28 1017.51 1018.01 1018.08 1018.23 1017.93 1017.91 1017.90 1017.64 1017.38 1017.25 1016.98 1016.78 1016.64 1016.40 1016.23 1016.16 1016.04 1016.09 1016.30 1016.50 1016.76 1017.08 1017.43
1014.47 1015.11 1015.50 1015.95 1015.81 1015.60 1015.43 1015.09 1014.82 1014.93 1014.75 1014.65 1014.81 1015.14 1015.31 1015.46 1015.62 1015.74 1016.23 1017.03 1017.32 1017.81 1018.13 1018.17 1018.17 1018.06 1018.09 1018.09 1017.94 1017.80 1017.68 1017.46 1017.26 1017.26 1017.05 1016.86 1016.72 1016.73 1016.72 1016.81 1017.06 1017.29 1017.61 1017.91
1016.05 1016.34 1016.94 1016.91 1016.65 1016.40 1016.10 1015.72 1015.50 1015.36 1015.12 1014.94 1015.07 1015.26 1015.34 1015.45 1015.54 1015.73 1016.55 1017.24 1017.34 1017.40 1017.66 1017.92 1017.88 1018.01 1018.26 1018.30 1018.23 1018.05 1017.77 1017.57 1017.49 1017.39 1017.54 1017.52 1017.36 1017.34 1017.42 1017.46 1017.52 1017.66 1017.88 1018.08
1017.40 1017.85 1017.92 1017.46 1017.22 1017.22 1016.72 1016.37 1016.14 1015.91 1015.62 1015.50 1015.48 1015.52 1015.61 1015.79 1015.75 1015.95 1016.27 1016.82 1017.27 1017.78 1017.78 1017.80 1017.95 1018.09 1018.24 1018.33 1018.22 1018.08 1017.88 1017.73 1017.64 1017.62 1017.76 1017.93 1017.96 1017.99 1017.96 1017.90 1017.88 1017.98 1018.06 1018.29
1019.06 1019.34 1018.66 1018.26 1018.11 1017.90 1017.58 1017.21 1016.84 1016.21 1016.01 1016.53 1016.66 1016.84 1016.93 1016.81 1016.54 1016.62 1016.80 1017.29 1017.54 1017.57 1017.75 1017.91 1017.90 1017.99 1018.05 1018.13 1018.03 1017.97 1017.88 1017.74 1017.69 1017.73 1017.87 1018.17 1018.54 1018.64 1018.54 1018.46 1018.35 1018.25 1018.20 1018.27
Wind_Speed
13 10 9 12 14 8 2 2 1 2 1 3 1 3 6 3 3 2 4 2 4 4 3 4 3 2 4 3 3 5 3 3 3 1 5 3 2 2 1 3 4 4 1 4
14 11 9 10 11 6 3 3 3 1 1 3 3 5 5 4 3 4 3 4 6 2 3 3 3 1 0 1 3 3 4 1 3 8 7 4 6 5 4 2 4 6 5 4
14 12 10 9 10 8 1 2 2 1 1 1 3 3 5 4 3 3 3 3 1 2 3 3 4 3 1 1 1 2 2 3 5 7 4 5 6 6 7 8 3 4 4 5
16 14 11 10 9 7 1 2 5 4 4 5 5 4 2 3 3 3 2 2 3 2 3 3 2 2 5 1 5 2 4 4 3 5 4 3 4 4 6 8 7 2 6 6
18 16 12 10 8 7 2 4 4 1 1 1 7 4 5 6 3 5 4 4 3 4 5 4 3 0 1 1 5 3 3 3 3 2 0 1 4 2 5 3 3 5 7 5
20 19 14 12 9 10 4 2 2 2 2 2 5 6 6 6 5 4 3 4 1 4 5 4 3 2 2 3 1 2 2 2 2 3 3 2 1 4 3 1 2 6 5 7
21 20 15 14 12 17 3 4 3 3 3 4 6 4 5 5 4 2 2 2 3 1 1 1 1 3 4 4 3 2 0 3 1 3 4 2 4 0 0 2 1 3 2 5
23 22 18 15 13 13 4 3 3 4 3 3 3 5 4 2 0 2 2 3 2 1 3 2 3 3 2 2 2 1 1 2 3 3 1 4 1 2 5 3 1 4 6 7
25 23 18 16 13 11 3 3 2 3 4 6 3 5 5 4 3 3 3 0 2 4 2 1 1 2 1 2 2 2 3 3 4 1 2 1 3 1 1 1 4 5 6 7
25 23 19 16 13 12 4 3 3 3 3 2 3 4 5 5 2 2 2 2 1 3 2 1 2 2 1 1 2 1 2 3 2 0 1 5 5 3 2 2 7 6 8 7
25 23 20 18 15 12 5 1 3 3 3 1 1 2 4 3 2 4 3 3 1 2 1 2 2 2 2 1 3 2 2 3 2 1 2 2 5 2 2 5 1 4 5 6
24 22 20 19 15 12 7 2 1 1 2 2 2 2 2 2 1 5 1 3 3 4 4 1 2 2 1 1 3 1 2 5 3 7 5 3 4 2 1 1 3 3 5 5
24 21 20 19 16 14 6 3 4 3 3 2 2 1 2 2 3 0 4 2 2 2 2 4 1 3 4 2 5 1 2 3 2 3 2 5 5 3 3 2 2 3 4 6
20 19 20 19 18 15 7 3 3 3 3 3 1 0 2 1 2 1 1 4 3 4 2 2 2 2 2 2 2 2 4 3 3 5 7 5 3 5 3 4 3 4 4 6
15 17 18 19 17 14 5 2 3 2 4 3 2 2 2 3 1 2 1 2 3 2 2 2 3 1 2 1 1 4 6 7 5 6 5 3 4 4 1 5 6 7 7 4
18 13 18 19 19 13 3 1 1 2 3 4 1 2 4 5 5 6 4 2 2 2 3 2 1 1 3 2 3 5 4 1 0 1 1 3 5 6 3 3 5 3 7 5
17 13 12 18 17 3 2 2 4 6 2 2 1 0 2 2 2 2 2 3 1 1 1 1 1 1 3 2 4 4 5 5 5 1 3 2 2 3 6 3 0 5 5 4
10 9 8 13 15 10 3 3 4 3 4 3 2 1 1 2 1 1 2 2 2 2 2 1 2 1 1 4 1 6 6 8 4 5 5 5 5 5 2 2 4 4 5 4
6 10 12 4 4 2 2 5 6 2 3 3 2 5 4 1 1 1 1 0 2 0 1 2 3 1 5 1 5 6 7 5 8 9 8 7 4 6 2 4 5 5 4 4
2 1 4 3 2 6 6 0 1 2 1 2 2 3 3 3 2 1 2 1 2 2 2 2 3 4 0 3 4 5 6 7 6 4 5 3 4 4 3 4 2 3 3 4
3 2 3 2 4 2 3 2 2 2 2 3 3 4 4 3 4 4 3 2 2 2 3 3 2 3 2 7 7 7 6 6 6 5 6 6 6 5 4 4 3 3 4 4
2 3 2 4 2 1 3 3 2 4 4 3 3 2 3 3 2 2 3 3 2 4 3 2 3 3 3 6 6 7 6 7 6 6 6 6 5 4 2 1 2 2 3 4
3 4 3 1 1 2 4 5 3 3 2 3 3 2 2 2 1 2 2 4 3 4 2 3 4 3 4 6 5 6 6 6 5 7 6 6 5 6 4 3 4 5 6 4
4 3 4 2 2 2 2 1 2 1 1 1 2 2 2 2 3 2 3 2 3 2 2 4 2 3 4 6 5 5 7 6 5 3 4 4 4 4 5 5 4 6 6 4
3 3 2 2 1 1 3 2 1 2 1 1 2 2 2 2 3 2 4 2 3 4 4 2 3 2 2 4 4 5 6 6 6 5 3 3 2 4 4 3 4 4 5 4
4 5 3 2 2 2 3 3 2 2 1 1 2 1 2 2 1 2 3 6 3 2 2 2 0 1 2 3 4 5 5 5 4 4 2 0 1 4 4 2 3 3 3 3
4 2 1 1 2 1 2 3 3 4 2 2 2 4 3 2 3 2 2 3 3 3 1 1 1 2 4 5 5 5 5 5 4 2 1 1 2 2 3 1 3 2 2 3
Wind_Direction
263 267 281 294 299 313 307 140 110 316 350 82 99 231 205 238 261 169 257 226 226 233 287 277 282 263 217 188 177 178 179 119 71 272 308 311 149 172 145 151 239 234 214 274
254 251 256 278 293 284 277 165 127 354 66 183 232 270 270 229 228 212 205 250 212 207 253 290 235 234 129 170 208 188 166 174 99 337 353 19 284 179 217 20 59 240 134 236
243 243 241 256 272 272 244 141 145 13 44 266 190 243 249 253 216 246 201 250 216 311 266 213 289 298 229 282 243 187 129 166 174 197 190 136 213 232 181 168 252 181 208 147
235 238 233 244 252 232 169 208 235 169 200 245 194 161 278 228 257 228 186 256 215 214 281 300 242 292 321 268 352 129 152 212 208 226 241 201 218 207 172 190 242 164 179 121
228 234 222 231 238 240 213 203 164 59 204 159 149 188 242 206 229 190 230 209 197 191 219 216 271 269 31 287 327 22 339 218 161 199 348 199 177 165 184 194 112 66 115 101
220 226 218 217 207 165 222 258 335 131 146 164 134 214 218 217 154 220 239 211 198 229 234 198 221 215 245 248 282 300 36 137 82 255 316 303 310 204 201 141 114 150 133 208
212 220 209 206 204 196 190 227 129 134 232 184 205 192 188 207 210 241 251 196 197 268 30 294 219 230 238 224 251 202 153 107 89 260 341 27 264 26 188 108 97 200 71 133
209 214 204 199 201 207 198 221 171 165 217 180 222 178 175 132 196 224 238 223 226 18 25 34 6 334 321 216 214 221 183 106 61 91 151 282 320 223 159 162 294 192 148 142
203 209 197 193 196 195 171 216 199 144 136 231 131 156 163 178 212 311 232 31 130 63 79 76 184 231 216 305 348 132 83 71 112 102 66 68 241 226 186 214 352 183 148 162
196 199 193 183 190 187 166 211 217 119 167 234 151 176 172 138 135 185 294 180 143 58 83 143 184 251 196 308 291 239 10 11 112 123 193 293 242 174 146 88 224 166 169 172
191 191 187 179 180 174 158 182 205 153 156 228 218 149 137 116 145 159 190 62 346 54 100 163 226 185 240 322 245 205 187 127 215 105 60 355 158 97 181 214 52 168 179 184
187 188 178 173 170 170 153 138 196 148 100 139 40 55 38 34 101 135 164 173 165 195 99 177 121 246 76 162 287 28 315 182 196 175 217 275 228 247 12 132 150 196 177 164
177 178 171 167 165 165 145 139 151 86 107 36 89 198 14 32 35 2 131 257 154 144 163 154 170 250 131 201 243 270 250 165 199 21 274 248 267 257 246 176 233 187 177 156
162 168 166 163 162 155 140 141 161 98 109 130 211 206 75 350 360 352 34 127 86 106 108 122 149 214 148 236 263 219 213 132 177 275 281 277 291 225 220 202 208 161 148 168
164 166 156 158 149 143 110 114 181 157 133 172 177 87 20 1 22 105 72 110 114 121 97 113 228 178 120 45 349 246 187 186 164 222 230 159 251 303 137 199 221 208 168 143
71 134 147 144 145 136 128 123 208 172 138 98 66 1 25 14 54 74 70 52 72 96 143 207 276 251 115 136 244 267 221 244 93 267 230 232 272 279 252 247 248 210 181 166
76 71 118 143 146 138 154 166 161 150 106 92 61 32 15 27 62 37 47 37 72 106 134 192 163 195 107 149 238 315 11 350 318 339 296 266 232 298 336 259 49 138 123 124
75 95 89 138 114 113 61 11 70 104 94 71 162 105 5 341 85 76 357 73 34 17 158 97 174 92 99 243 300 340 335 317 315 16 332 246 275 287 263 94 131 122 141 143
86 135 102 77 46 75 109 106 77 47 99 186 145 162 213 51 90 82 45 293 143 359 192 231 134 172 219 325 322 328 325 301 290 307 292 292 288 300 248 174 177 166 178 164
318 307 58 79 45 122 116 45 109 83 100 79 187 88 168 132 142 138 117 286 164 172 243 109 206 252 26 60 315 303 317 313 314 348 341 335 312 280 254 228 204 191 176 159
11 41 69 42 15 29 52 115 147 144 193 183 188 162 144 207 133 164 207 170 138 161 238 210 203 273 290 346 334 331 326 316 306 249 264 276 275 287 269 241 209 175 162 168
90 84 79 57 42 136 138 189 187 195 193 161 148 146 135 159 206 126 177 168 146 230 166 205 237 260 297 331 321 322 331 332 357 17 20 14 20 346 288 181 156 150 130 119
46 54 77 8 342 161 184 189 185 166 135 146 145 138 128 132 173 110 152 169 188 123 153 219 223 273 312 325 326 333 346 5 14 8 11 11 20 28 34 75 66 97 102 112
64 65 61 48 27 47 352 17 42 39 315 126 123 124 154 145 159 136 143 85 111 115 178 224 241 248 310 330 332 348 335 346 357 356 1 36 49 48 56 93 128 127 127 121
67 62 74 49 265 318 315 317 1 354 317 132 117 113 142 155 145 149 108 116 198 187 188 187 218 249 290 310 327 336 342 345 348 350 360 0 30 89 87 82 106 115 126 136
55 46 68 319 53 44 360 351 18 360 15 31 6 56 126 120 153 127 197 136 170 203 201 230 89 334 309 293 323 328 324 328 324 333 347 351 120 135 144 118 128 151 159 177
55 357 324 85 74 228 308 344 339 321 47 81 62 36 12 341 43 41 40 158 192 196 277 265 290 341 334 339 338 339 335 339 332 305 241 188 98 66 72 128 239 234 220 201